Find Starlink 35586

NORAD ID: 66159 Int'l Des: 2025-240 Owner: SPXS Country: US Constellation: starlink operational
LEOCIRCULAR

Current View

Loading 3D Globe...

About Starlink 35586

Description loading...

Upcoming Passes

Passes for default location (London). Set your location on the main map for personalized predictions.

Altitude History

Loading altitude history...

Two-Line Element Set

1 66159U 25240P 26146.15325566 .00029280 00000-0 87399-3 0 9992
2 66159 53.1604 62.6381 0000850 93.0143 267.0957 15.34413035 33851
Epoch: May 26, 2026 • Age: 14 hours

Current Status

Altitude 462.6 km
Velocity 7.64 km/s
Sub-Earth Point 12.18°N, 82.37°W
Launch Date Oct 25, 2025
Age 0.5 years
Type internet

Technical Details

Classification Payload
Mass 575.00 kg
Dry Mass 530.00 kg
Total Mass 575.00 kg
Length 0.30 m
Diameter 4.10 m
Span 29.00 m
Shape Box + pan
Manufacturer SPXS
Bus Type Starlink V2MO
Phase Status In Orbit
Owner/State SPXS/US

Most Searched